TimeCST,TemperatureF,Dew PointF,Humidity,Sea Level PressureIn,VisibilityMPH,Wind Direction,Wind SpeedMPH,Gust SpeedMPH,PrecipitationIn,Events,Conditions,WindDirDegrees,DateUTC
12:05 AM,41.0,39.2,93,30.08,5.0,East,4.6,-,0.00,Rain,Light Rain,90,2012-11-05 06:05:00
12:24 AM,41.0,39.2,93,30.08,4.0,ENE,3.5,-,0.01,Rain,Light Rain,70,2012-11-05 06:24:00
12:52 AM,41.0,39.0,93,30.12,4.0,East,3.5,-,0.02,Rain,Light Rain,80,2012-11-05 06:52:00
1:49 AM,41.0,39.2,93,30.09,2.5,NE,4.6,-,0.02,Rain,Light Rain,40,2012-11-05 07:49:00
1:52 AM,41.0,39.0,93,30.12,2.5,NE,4.6,-,0.02,Rain,Light Rain,40,2012-11-05 07:52:00
1:59 AM,41.0,39.2,93,30.09,3.0,NE,5.8,-,0.00,Rain,Light Rain,50,2012-11-05 07:59:00
2:52 AM,41.0,39.0,93,30.12,4.0,East,5.8,-,0.02,Rain,Light Rain,80,2012-11-05 08:52:00
3:52 AM,39.9,37.9,93,30.13,4.0,East,4.6,-,0.01,Rain,Light Rain,100,2012-11-05 09:52:00
4:52 AM,39.9,37.9,93,30.14,4.0,East,3.5,-,0.01,Rain,Light Rain,100,2012-11-05 10:52:00
5:23 AM,39.2,37.4,93,30.11,5.0,SE,5.8,-,0.01,Rain,Light Rain,130,2012-11-05 11:23:00
5:52 AM,39.9,37.9,93,30.14,4.0,ESE,4.6,-,0.02,Rain,Light Rain,120,2012-11-05 11:52:00
6:52 AM,39.9,37.9,93,30.15,3.0,Calm,Calm,-,0.00,,Overcast,0,2012-11-05 12:52:00
7:02 AM,39.2,37.4,93,30.12,3.0,Calm,Calm,-,N/A,,Overcast,0,2012-11-05 13:02:00
7:11 AM,39.2,37.4,93,30.12,3.0,East,4.6,-,0.01,,Overcast,100,2012-11-05 13:11:00
7:34 AM,39.2,37.4,93,30.13,3.0,East,3.5,-,0.01,Rain,Light Rain,90,2012-11-05 13:34:00
7:52 AM,39.9,37.9,93,30.17,2.5,East,3.5,-,0.02,Rain,Light Rain,100,2012-11-05 13:52:00
8:34 AM,39.2,39.2,100,30.15,1.8,Calm,Calm,-,0.01,Rain,Light Rain,0,2012-11-05 14:34:00
8:43 AM,39.2,37.4,93,30.15,2.0,ESE,3.5,-,0.01,,Overcast,110,2012-11-05 14:43:00
8:52 AM,39.9,37.9,93,30.18,2.0,ESE,4.6,-,0.01,,Overcast,110,2012-11-05 14:52:00
9:00 AM,39.2,37.4,93,30.15,2.0,ESE,4.6,-,N/A,,Overcast,120,2012-11-05 15:00:00
9:11 AM,39.2,37.4,93,30.14,2.0,ESE,6.9,-,N/A,,Overcast,120,2012-11-05 15:11:00
9:35 AM,39.2,37.4,93,30.15,1.8,SE,5.8,-,N/A,,Overcast,140,2012-11-05 15:35:00
9:52 AM,39.9,37.9,93,30.18,2.0,SE,8.1,-,N/A,,Overcast,140,2012-11-05 15:52:00
10:08 AM,41.0,39.2,93,30.15,2.0,SSE,6.9,-,N/A,,Overcast,150,2012-11-05 16:08:00
10:37 AM,39.2,37.4,93,30.15,2.5,SE,8.1,-,N/A,,Overcast,140,2012-11-05 16:37:00
10:52 AM,41.0,37.9,89,30.19,3.0,SSE,8.1,-,N/A,,Overcast,160,2012-11-05 16:52:00
11:20 AM,41.0,37.4,87,30.15,2.5,SSE,6.9,-,N/A,,Overcast,150,2012-11-05 17:20:00
11:27 AM,41.0,37.4,87,30.15,3.0,SE,8.1,-,N/A,,Overcast,140,2012-11-05 17:27:00
11:52 AM,41.0,37.9,89,30.17,3.0,SSE,9.2,-,N/A,,Overcast,150,2012-11-05 17:52:00
12:52 PM,41.0,37.9,89,30.16,4.0,South,8.1,-,N/A,,Overcast,190,2012-11-05 18:52:00
1:07 PM,41.0,37.4,87,30.12,4.0,SSW,9.2,-,N/A,,Overcast,200,2012-11-05 19:07:00
1:19 PM,41.0,39.2,93,30.12,4.0,South,8.1,-,N/A,,Overcast,190,2012-11-05 19:19:00
1:52 PM,41.0,39.0,93,30.14,4.0,South,8.1,-,N/A,,Overcast,190,2012-11-05 19:52:00
2:00 PM,41.0,39.2,93,30.11,4.0,South,9.2,-,N/A,,Overcast,190,2012-11-05 20:00:00
2:52 PM,42.1,37.9,85,30.12,5.0,South,8.1,-,N/A,,Overcast,170,2012-11-05 20:52:00
3:47 PM,42.8,39.2,87,30.10,4.0,South,9.2,-,N/A,,Overcast,180,2012-11-05 21:47:00
3:52 PM,42.1,37.9,85,30.13,4.0,South,10.4,-,N/A,,Overcast,180,2012-11-05 21:52:00
4:52 PM,41.0,39.0,93,30.11,4.0,South,9.2,-,N/A,,Overcast,180,2012-11-05 22:52:00
5:52 PM,41.0,37.9,89,30.10,4.0,South,11.5,-,N/A,,Overcast,180,2012-11-05 23:52:00
6:26 PM,41.0,37.4,87,30.07,4.0,South,9.2,-,N/A,,Overcast,190,2012-11-06 00:26:00
6:52 PM,39.9,37.9,93,30.11,3.0,SW,6.9,-,N/A,,Overcast,230,2012-11-06 00:52:00
7:00 PM,39.2,37.4,93,30.07,3.0,WSW,10.4,-,N/A,,Overcast,240,2012-11-06 01:00:00
7:37 PM,39.2,37.4,93,30.06,3.0,WSW,10.4,-,N/A,,Overcast,240,2012-11-06 01:37:00
7:52 PM,39.0,37.9,96,30.09,2.5,WSW,9.2,-,0.01,,Overcast,240,2012-11-06 01:52:00
8:00 PM,39.2,37.4,93,30.06,3.0,SW,9.2,-,N/A,,Overcast,230,2012-11-06 02:00:00
8:15 PM,39.2,37.4,93,30.05,6.0,SSW,9.2,-,N/A,,Overcast,210,2012-11-06 02:15:00
8:52 PM,39.0,37.0,93,30.07,7.0,SSW,9.2,-,N/A,,Overcast,210,2012-11-06 02:52:00
9:34 PM,39.2,37.4,93,30.03,6.0,SSW,10.4,-,N/A,,Overcast,210,2012-11-06 03:34:00
9:52 PM,39.0,37.0,93,30.05,6.0,SSW,10.4,-,N/A,,Overcast,200,2012-11-06 03:52:00
11:11 PM,39.2,37.4,93,29.97,5.0,SSW,11.5,-,N/A,,Overcast,200,2012-11-06 05:11:00
11:38 PM,39.2,37.4,93,29.95,5.0,SSW,11.5,-,N/A,,Overcast,200,2012-11-06 05:38:00
11:52 PM,39.9,37.9,93,29.98,6.0,SSW,15.0,-,N/A,,Overcast,200,2012-11-06 05:52:00